EW0680 Weather Reports


time (UTC)temp
C
wind
direction
speed
KPH
gust
KPH
rain 1hr
cm
rain 24hr
cm
rain mn
cm
humidity
%
barometer
mb
20260903163012 32 319 1.6 4.8 0.00 0.00 0.00 70 1015.3
20260903161511 31 77 3.2 6.4 0.00 0.00 0.00 70 1015.4
20260903160017 31 315 0.0 4.8 0.00 0.00 0.00 73 1015.5
20260903154515 31 328 3.2 6.4 0.00 0.00 0.00 70 1015.6
20260903153015 31 286 0.0 3.2 0.00 0.00 0.00 72 1015.6
20260903151517 31 304 1.6 4.8 0.00 0.00 0.00 72 1015.4
20260903150016 30 258 0.0 4.8 0.00 0.00 0.00 74 1015.4
20260903144519 30 291 1.6 8.0 0.00 0.00 0.00 73 1015.4
20260903143023 30 129 1.6 4.8 0.00 0.00 0.00 75 1015.4
20260903141505 29 306 0.0 4.8 0.00 0.00 0.00 78 1015.5
20260903140006 28 351 0.0 1.6 0.00 0.00 0.00 79 1015.6
20260903134502 27 243 0.0 0.0 0.00 0.00 0.00 81 1015.7
20260903133003 26 288 0.0 0.0 0.00 0.00 0.00 83 1015.8
20260903131600 26 257 0.0 0.0 0.00 0.00 0.00 84 1015.8
20260903131503 26 257 0.0 0.0 0.00 0.00 0.00 85 1015.8
20260903130003 25 257 0.0 0.0 0.00 0.00 0.00 85 1015.9
20260903124509 25 257 0.0 0.0 0.00 0.00 0.00 86 1016.1
20260903123025 24 257 0.0 0.0 0.00 0.00 0.00 87 1016.0
20260903121522 23 257 0.0 0.0 0.00 0.00 0.00 87 1016.1
20260903120029 23 257 0.0 0.0 0.00 0.00 0.00 88 1015.9
20260903114511 23 257 0.0 0.0 0.00 0.00 0.00 88 1015.7
20260903113016 22 257 0.0 0.0 0.00 0.00 0.00 88 1015.6
20260903111516 23 257 0.0 0.0 0.00 0.00 0.00 88 1015.5
20260903110021 23 257 0.0 0.0 0.00 0.00 0.00 88 1015.3
20260903104522 23 257 0.0 0.0 0.00 0.00 0.00 87 1015.3
20260903103026 23 257 0.0 0.0 0.00 0.00 0.00 87 1015.1
20260903101529 23 257 0.0 0.0 0.00 0.00 0.00 87 1015.1
20260903100036 23 257 0.0 0.0 0.00 0.00 0.00 87 1015.0
20260903094536 23 257 0.0 0.0 0.00 0.00 0.00 87 1014.9
20260903093102 23 252 0.0 0.0 0.00 0.00 0.00 87 1015.0
20260903091524 23 252 0.0 0.0 0.00 0.00 0.00 87 1015.0
20260903090024 23 251 0.0 0.0 0.00 0.00 0.00 87 1015.0
20260903084524 23 252 0.0 0.0 0.00 0.00 0.00 87 1015.0
20260903083030 23 252 0.0 0.0 0.00 0.00 0.00 87 1015.0
20260903081529 23 252 0.0 0.0 0.00 0.00 0.00 86 1015.0
20260903080020 23 251 0.0 0.0 0.00 0.00 0.00 86 1015.0
20260903074527 23 251 0.0 0.0 0.00 0.00 0.00 86 1014.9
20260903073025 24 251 0.0 0.0 0.00 0.00 0.00 86 1014.9
20260903071516 24 251 0.0 0.0 0.00 0.00 0.00 86 1014.9
20260903070105 24 251 0.0 0.0 0.00 0.00 0.00 86 1014.9
20260903070002 24 252 0.0 0.0 0.00 0.00 0.00 86 1014.9
20260903064506 24 252 0.0 0.0 0.00 0.00 0.00 86 1014.9
20260903063011 24 256 0.0 0.0 0.00 0.00 0.00 86 1014.9
20260903061512 24 256 0.0 0.0 0.00 0.00 0.00 86 1014.9
20260903060016 24 256 0.0 0.0 0.00 0.00 0.00 86 1014.9
20260903054527 24 256 0.0 0.0 0.00 0.00 0.00 86 1014.9
20260903053021 24 138 0.0 0.0 0.00 0.00 0.00 86 1014.9
20260903051527 24 122 0.0 0.0 0.00 0.00 0.00 86 1014.7
20260903050029 24 122 0.0 0.0 0.00 0.00 0.00 86 1014.6
20260903044529 25 122 0.0 0.0 0.00 0.00 0.00 86 1014.5
20260903043033 25 122 0.0 0.0 0.00 0.00 0.00 86 1014.4
20260903041538 25 122 0.0 0.0 0.00 0.00 0.00 86 1014.4
20260903040026 25 122 0.0 0.0 0.00 0.00 0.00 86 1014.6
20260903034527 25 122 0.0 0.0 0.00 0.00 0.00 86 1014.5
20260903033010 25 122 0.0 0.0 0.00 0.00 0.00 86 1014.7
20260903031516 25 122 0.0 0.0 0.00 0.00 0.00 85 1014.8
20260903030021 25 122 0.0 0.0 0.00 0.00 0.00 85 1014.9
20260903024524 25 122 0.0 0.0 0.00 0.00 0.00 85 1015.1
20260903023036 26 122 0.0 0.0 0.00 0.00 0.00 84 1015.1
20260903021530 26 122 0.0 0.0 0.00 0.00 0.00 84 1015.0
20260903020035 26 122 0.0 0.0 0.00 0.00 0.00 83 1014.9
20260903014537 26 122 0.0 0.0 0.00 0.00 0.00 83 1014.9
20260903013058 26 122 0.0 0.0 0.00 0.00 0.00 82 1014.7
20260903011532 26 122 0.0 0.0 0.00 0.00 0.00 82 1014.6
20260903010041 27 122 0.0 0.0 0.00 0.00 0.00 81 1014.4
20260903004552 27 122 0.0 0.0 0.00 0.00 0.00 80 1014.4
20260903003106 27 122 0.0 0.0 0.00 0.00 0.00 79 1014.3
20260903001554 28 122 0.0 0.0 0.00 0.00 0.00 78 1014.2
20260903000108 28 122 0.0 0.0 0.00 0.00 0.00 78 1014.2
20260903000002 28 122 0.0 0.0 0.00 0.00 0.00 78 1014.2
20260902234507 29 122 0.0 0.0 0.00 0.00 0.00 78 1014.2
20260902233012 29 122 0.0 0.0 0.00 0.00 0.00 76 1014.1
20260902231558 30 122 0.0 0.0 0.00 0.00 0.00 75 1014.1
20260902230009 30 122 0.0 0.0 0.00 0.00 0.00 74 1014.3
20260902224516 31 122 0.0 3.2 0.00 0.00 0.00 71 1014.2
20260902223023 31 295 0.0 4.8 0.00 0.00 0.00 71 1014.2
20260902221509 32 322 0.0 0.0 0.00 0.00 0.00 70 1014.5
20260902220014 32 344 0.0 3.2 0.00 0.00 0.00 67 1014.5
20260902214536 32 298 0.0 4.8 0.00 0.00 0.00 66 1014.4
20260902213023 33 328 0.0 6.4 0.00 0.00 0.00 66 1014.5
20260902211529 33 277 0.0 4.8 0.00 0.00 0.00 67 1014.6
20260902210031 33 262 0.0 4.8 0.00 0.00 0.00 65 1014.6
20260902204540 33 285 1.6 12.9 0.00 0.00 0.00 63 1014.7
20260902203020 33 225 0.0 0.0 0.00 0.00 0.00 64 1014.8
20260902201531 33 82 0.0 3.2 0.00 0.00 0.00 67 1015.0
20260902200021 33 256 0.0 4.8 0.00 0.00 0.00 65 1015.2
20260902194534 33 320 0.0 4.8 0.00 0.00 0.00 65 1015.4
20260902193005 33 231 3.2 12.9 0.00 0.00 0.00 64 1015.6
20260902191509 33 13 0.0 11.3 0.00 0.00 0.00 65 1015.6
20260902190015 33 104 0.0 4.8 0.00 0.00 0.00 64 1015.7
20260902184521 33 270 0.0 8.0 0.00 0.00 0.00 66 1015.7
20260902183025 33 335 0.0 8.0 0.00 0.00 0.00 62 1016.0
20260902181527 33 322 1.6 6.4 0.00 0.00 0.00 66 1016.1
20260902180031 32 342 0.0 4.8 0.00 0.00 0.00 65 1016.2
20260902174521 32 331 0.0 4.8 0.00 0.00 0.00 68 1016.3
20260902173015 32 271 1.6 4.8 0.00 0.00 0.00 67 1016.5
20260902171520 32 302 0.0 6.4 0.00 0.00 0.00 66 1016.7
20260902170032 32 92 0.0 9.7 0.00 0.00 0.00 68 1016.7
20260902164538 32 71 1.6 8.0 0.00 0.00 0.00 70 1016.8